Regional Weather Roundup
Issued by NWS

Home | Current Version | Previous Version | Graphics & Text | Print | Product List | Glossary On
Versions: 1 2 3 4 5 6 7 8 9 10 11 12 13 14 15 16 17 18 19 20 21 22 23 24 25 26 27 28 29 30 31 32 33 34 35 36 37 38 39 40 41 42 43 44 45 46 47 48 49 50
000
ASUS43 KBIS 231301
RWRND

NORTH DAKOTA REGIONAL WEATHER ROUNDUP
NATIONAL WEATHER SERVICE BISMARCK ND
800 AM CDT SAT MAY 23 2015

NOTE: "FAIR" INDICATES FEW OR NO CLOUDS BELOW 12,000 FEET WITH NO
SIGNIFICANT WEATHER AND/OR OBSTRUCTIONS TO VISIBILITY.


NDZ001>003-009>011-017-231400-
NORTHWEST NORTH DAKOTA

CITY           SKY/WX    TMP DP  RH WIND       PRES   REMARKS
WILLISTON      SUNNY     52  40  63 NE5       30.13R
MINOT          MOSUNNY   55  42  61 S5        30.14S
MINOT AFB      MOSUNNY   56  44  64 S6        30.13S
$$

NDZ018>021-031>035-040>046-231400-
SOUTHWEST NORTH DAKOTA

CITY           SKY/WX    TMP DP  RH WIND       PRES   REMARKS
BISMARCK       MOSUNNY   49  45  86 E3        30.17S
DICKINSON      PTSUNNY   45  41  86 SE9       30.11S
GARRISON         N/A     50  44  80 S5        30.15R
HETTINGER ARPT CLOUDY    45  42  89 E8        30.11F
$$

NDZ004>008-012>016-024-026-027-054-231400-
NORTHEAST NORTH DAKOTA

CITY           SKY/WX    TMP DP  RH WIND       PRES   REMARKS
GRAND FORKS    MOSUNNY   54  44  69 S7        30.14S
GRND FRKS AFB  SUNNY     55  45  68 SW5       30.14S
DEVILS LAKE    SUNNY     55  43  62 SW7       30.15S
$$

NDZ022-023-025-028>030-036>039-047>053-231400-
SOUTHEAST NORTH DAKOTA

CITY           SKY/WX    TMP DP  RH WIND       PRES   REMARKS
FARGO          MOSUNNY   57  45  64 S10       30.19S
JAMESTOWN      MOSUNNY   55  43  63 SW3       30.17F
$$




USA.gov is the U.S. government's official web portal to all federal, state and local government web resources and services.